BEIDOU-2 M6 (C14)

Last updated on Mon Oct 20 2025 00:03:24 GMT+0000 (Coordinated Universal Time)

1 38775U 12050B 25292.27463369 -.00000028 00000+0 00000+0 0 9997 2 38775 56.3322 70.8735 0010516 354.5101 5.4640 1.86230948 88821
UTC large
Height (km)
Speed (km/s)
/
Latitude / Longitude
Inclination (degrees)
Orbital Period (minutes)
Azimuth
Elevation
Range (km)
Doppler Factor

Next 0 passes for location: London (51.5072 / 0.1276)

Sorry there are no passes over London.